TimeCST,TemperatureF,Dew PointF,Humidity,Sea Level PressureIn,VisibilityMPH,Wind Direction,Wind SpeedMPH,Gust SpeedMPH,PrecipitationIn,Events,Conditions,WindDirDegrees,DateUTC
12:53 AM,30.0,26.1,85,30.06,10.0,North,17.3,29.9,N/A,,Overcast,350,2013-03-06 06:53:00
1:53 AM,28.0,24.1,85,30.09,10.0,North,16.1,-,0.00,,Overcast,350,2013-03-06 07:53:00
2:53 AM,28.0,23.0,81,30.09,10.0,NNW,11.5,-,0.00,,Overcast,330,2013-03-06 08:53:00
3:53 AM,27.0,23.0,85,30.13,10.0,NNW,13.8,21.9,0.00,,Overcast,330,2013-03-06 09:53:00
4:49 AM,26.6,23.0,86,30.13,10.0,NNW,12.7,20.7,N/A,,Overcast,330,2013-03-06 10:49:00
4:53 AM,27.0,23.0,85,30.16,10.0,NNW,10.4,-,N/A,,Overcast,330,2013-03-06 10:53:00
5:53 AM,27.0,23.0,85,30.18,10.0,NNW,9.2,-,N/A,,Overcast,330,2013-03-06 11:53:00
6:53 AM,28.0,24.1,85,30.18,10.0,North,9.2,-,N/A,,Overcast,350,2013-03-06 12:53:00
7:53 AM,28.9,24.1,82,30.21,6.0,NW,8.1,-,N/A,,Haze,320,2013-03-06 13:53:00
8:36 AM,28.4,24.8,86,30.20,10.0,NW,9.2,17.3,N/A,,Overcast,320,2013-03-06 14:36:00
8:53 AM,28.9,24.1,82,30.23,10.0,NW,9.2,-,N/A,,Overcast,320,2013-03-06 14:53:00
9:46 AM,30.2,24.8,80,30.21,8.0,NW,13.8,-,N/A,,Overcast,320,2013-03-06 15:46:00
9:53 AM,30.0,25.0,82,30.24,9.0,NW,9.2,-,N/A,,Overcast,320,2013-03-06 15:53:00
10:23 AM,30.2,26.6,86,30.22,10.0,NW,5.8,16.1,N/A,,Overcast,320,2013-03-06 16:23:00
10:53 AM,32.0,26.1,79,30.25,10.0,NW,10.4,-,N/A,,Overcast,320,2013-03-06 16:53:00
11:53 AM,34.0,26.1,73,30.25,10.0,North,8.1,-,N/A,,Overcast,350,2013-03-06 17:53:00
12:53 PM,34.0,26.1,73,30.25,10.0,NNW,10.4,-,N/A,,Overcast,340,2013-03-06 18:53:00
1:53 PM,34.0,26.1,73,30.25,10.0,NNW,9.2,-,N/A,,Overcast,340,2013-03-06 19:53:00
2:53 PM,34.0,26.1,73,30.26,10.0,NW,8.1,-,N/A,,Overcast,320,2013-03-06 20:53:00
3:53 PM,33.1,26.1,75,30.27,10.0,NW,11.5,-,N/A,,Overcast,320,2013-03-06 21:53:00
4:53 PM,33.1,26.1,75,30.28,10.0,NNW,8.1,-,N/A,,Overcast,330,2013-03-06 22:53:00
5:53 PM,32.0,26.1,79,30.30,10.0,NW,6.9,-,N/A,,Overcast,320,2013-03-06 23:53:00
6:53 PM,32.0,26.1,79,30.31,10.0,Variable,4.6,-,N/A,,Overcast,0,2013-03-07 00:53:00
7:28 PM,30.2,26.6,86,30.29,10.0,WNW,4.6,-,N/A,,Overcast,290,2013-03-07 01:28:00
7:49 PM,30.2,24.8,80,30.29,10.0,WNW,5.8,-,N/A,,Overcast,290,2013-03-07 01:49:00
7:53 PM,30.9,25.0,79,30.32,10.0,WNW,4.6,-,N/A,,Overcast,300,2013-03-07 01:53:00
8:53 PM,30.9,25.0,79,30.32,10.0,WNW,4.6,-,N/A,,Overcast,300,2013-03-07 02:53:00
9:15 PM,30.2,24.8,80,30.30,10.0,NW,4.6,-,N/A,,Overcast,310,2013-03-07 03:15:00
9:24 PM,30.2,24.8,80,30.30,10.0,WNW,4.6,-,N/A,,Overcast,300,2013-03-07 03:24:00
9:53 PM,30.9,25.0,79,30.32,10.0,WNW,4.6,-,N/A,,Overcast,290,2013-03-07 03:53:00
10:06 PM,30.2,24.8,80,30.30,10.0,WNW,3.5,-,N/A,,Overcast,290,2013-03-07 04:06:00
10:53 PM,30.9,25.0,79,30.32,10.0,WNW,5.8,-,N/A,,Overcast,300,2013-03-07 04:53:00
11:53 PM,30.0,24.1,79,30.32,10.0,WNW,5.8,-,N/A,,Overcast,300,2013-03-07 05:53:00